Showing default

BSAT-2A, 26720

Orbit data source: Space-Track

BSAT-2A, 26720 is a payload satellite owned by BSAT (JP) in GEO that was launched on Thu, 08 Mar 2001 UTC via an ARIANE 5G launch vehicle from the French Guiana (FRGUI). Payload-class satellites include a variety of spacecraft equipped with specific instruments for various scientific and technological missions. These include communications satellites like Starlink; space stations such as the ISS; scientific satellites like the Hubble; Earth observation satellites from companies like Planet Labs, Umbra, and HawkEye 360; GPS; miniature CubeSats for education and research; and military/defense satellites.

Not visible in the next 10 days
Identifier
26720, 2001-011B
Orbit
GEO
Country
Flag of JPJP / JPN
Related business
Manufacturer
OSCD?
Mission
Partially operational Commercial Communications
Bus & Motor
OSC STAR 1, STAR 30CBP
Mass
1,317 kg wet, 490 kg dry
Launch date (UTC)
2001-03-08 (25 years ago)
Launch vehicle
ARIANE 5G
Launch site
French Guiana (FRGUI)
Object type
Payload
Rocket body
Debris
Shape & HBR
Box + 2 Pan, 8.1 m
Radar Cross Section
21.750 m², Large (>1 m²)

Expand to show TLE details & history
Last TLE update: 8 hours ago

TLE from 8 hours ago
0 BSAT-2A
1 26720U 01011B   25308.48455924  .00000036  00000-0  00000-0 0  9998
2 26720  10.2546  49.5131 0008348 191.0200  58.0421  0.99174690 89749
Epoch: 2025-11-04T11:37Z
TLE epoch observation values (Epoch: 2025-11-04T11:37:45.918Z)
Latitude
-9.57848°
Longitude
79.9094°
Altitude
36,079.587 km
Speed
3.065 km/s
True Right ascension
19h 53m 17s
True Declination
-9° 34' 08"
Sunlit
Object was in daylight at epoch
Visualization orbit readout
Latitude
Unknown
Longitude
Unknown
Altitude
Unknown
Speed
Unknown
Apparent Right ascension
Unknown
Apparent Declination
Unknown
Sunlit
N/A
Visualization observer readout
Local Sidereal Time
16:01:30
Azimuth
Unknown
Elevation
Unknown
Doppler factor
Unknown
Orbital elements
Apogee altitude
36,133.455 km
Perigee altitude
36,062.537 km
Semi-major axis
42,476.133 km
Eccentricity
0.00083
Inclination
10.2546°
RAAN
49.5131°
Arg. of periapsis
191.02°
True anomaly
58.12331°
Mean anomaly
58.0421°
Eccentric anomaly
58.0827°
Mean motion
0.24793 °/min
Orbital period
1,452.03 mins
BSTAR
0
Loading maneuver chart data...
Computing Atmospheric mass density...
Loading historical data...
Loading historical data...
Loading historical data...
Loading historical data...
Loading historical data...
Loading historical data...
Loading historical data...
Other satellites on launch #11 in the year 2001 (2001-03-08 UTC)

Documentation

Showing up to 5 results
|